Time,TemperatureF,DewpointF,PressureIn,WindDirection,WindDirectionDegrees,WindSpeedMPH,WindSpeedGustMPH,Humidity,HourlyPrecipIn,Conditions,Clouds,dailyrainin,SoftwareType,DateUTC
2013-01-14 00:04:00,47.0,46.0,29.76,WSW,254,1.0,7.0,95,0.00,,,0.58,,2013-01-14 05:04:00,
2013-01-14 00:12:00,47.0,46.0,29.76,WSW,254,1.0,7.0,95,0.00,,,0.58,,2013-01-14 05:12:00,
2013-01-14 00:22:00,46.0,45.0,29.75,West,266,0.0,0.0,95,0.00,,,0.58,,2013-01-14 05:22:00,
2013-01-14 00:33:00,46.0,45.0,29.75,West,267,0.0,0.0,95,0.00,,,0.58,,2013-01-14 05:33:00,
2013-01-14 00:42:00,46.0,45.0,29.75,West,267,0.0,0.0,95,0.00,,,0.58,,2013-01-14 05:42:00,
2013-01-14 00:53:00,46.0,45.0,29.75,West,281,1.0,4.0,95,0.00,,,0.58,,2013-01-14 05:53:00,
2013-01-14 01:03:00,46.0,45.0,29.77,West,277,7.0,11.0,95,0.00,,,0.58,,2013-01-14 06:03:00,
2013-01-14 01:12:00,46.0,45.0,29.77,West,277,7.0,11.0,95,0.00,,,0.58,,2013-01-14 06:12:00,
2013-01-14 01:22:00,45.0,44.0,29.81,West,269,16.0,19.0,95,0.02,,,0.60,,2013-01-14 06:22:00,
2013-01-14 01:33:00,44.0,43.0,29.82,WNW,291,16.0,27.0,95,0.03,,,0.61,,2013-01-14 06:33:00,
2013-01-14 01:43:00,44.0,43.0,29.82,WNW,291,16.0,27.0,95,0.03,,,0.61,,2013-01-14 06:43:00,
2013-01-14 01:53:00,43.0,42.0,29.86,WNW,287,11.0,27.0,95,0.03,,,0.61,,2013-01-14 06:53:00,
2013-01-14 02:02:00,43.0,42.0,29.87,WNW,299,10.0,23.0,95,0.04,,,0.62,,2013-01-14 07:02:00,
2013-01-14 02:12:00,43.0,42.0,29.87,WNW,299,10.0,23.0,95,0.04,,,0.62,,2013-01-14 07:12:00,
2013-01-14 02:23:00,42.0,40.0,29.90,West,279,15.0,23.0,94,0.02,,,0.62,,2013-01-14 07:23:00,
2013-01-14 02:33:00,42.0,40.0,29.91,WNW,288,14.0,26.0,93,0.01,,,0.62,,2013-01-14 07:33:00,
2013-01-14 02:42:00,42.0,40.0,29.91,WNW,288,14.0,26.0,93,0.01,,,0.62,,2013-01-14 07:42:00,
2013-01-14 02:53:00,41.0,39.0,29.92,West,279,9.0,17.0,92,0.01,,,0.62,,2013-01-14 07:53:00,
2013-01-14 03:02:00,41.0,39.0,29.92,WSW,253,4.0,13.0,92,0.00,,,0.62,,2013-01-14 08:02:00,
2013-01-14 03:12:00,41.0,39.0,29.92,WSW,253,4.0,13.0,92,0.00,,,0.62,,2013-01-14 08:12:00,
2013-01-14 03:22:00,41.0,39.0,29.94,West,281,8.0,13.0,92,0.00,,,0.62,,2013-01-14 08:22:00,
2013-01-14 03:33:00,41.0,39.0,29.95,West,273,4.0,16.0,92,0.00,,,0.62,,2013-01-14 08:33:00,
2013-01-14 03:42:00,41.0,39.0,29.95,West,273,4.0,16.0,92,0.00,,,0.62,,2013-01-14 08:42:00,
2013-01-14 03:53:00,40.0,38.0,29.96,WSW,244,2.0,13.0,92,0.00,,,0.62,,2013-01-14 08:53:00,
2013-01-14 04:03:00,40.0,38.0,29.96,WSW,244,1.0,8.0,92,0.00,,,0.55,,2013-01-14 09:03:00,
2013-01-14 04:12:00,40.0,38.0,29.96,WSW,244,1.0,8.0,92,0.00,,,0.55,,2013-01-14 09:12:00,
2013-01-14 04:23:00,40.0,38.0,29.97,SW,236,7.0,13.0,91,0.00,,,0.55,,2013-01-14 09:23:00,
2013-01-14 04:33:00,39.0,36.0,29.98,WSW,242,8.0,13.0,90,0.00,,,0.55,,2013-01-14 09:33:00,
2013-01-14 04:43:00,39.0,36.0,29.98,WSW,242,8.0,13.0,90,0.00,,,0.55,,2013-01-14 09:43:00,
2013-01-14 04:53:00,39.0,36.0,30.00,West,275,13.0,16.0,88,0.00,,,0.55,,2013-01-14 09:53:00,
2013-01-14 05:02:00,39.0,36.0,30.01,West,271,11.0,20.0,89,0.00,,,0.21,,2013-01-14 10:02:00,
2013-01-14 05:12:00,39.0,36.0,30.01,West,271,11.0,20.0,89,0.00,,,0.21,,2013-01-14 10:12:00,
2013-01-14 05:23:00,38.0,34.0,30.02,WSW,256,8.0,20.0,87,0.01,,,0.22,,2013-01-14 10:23:00,
2013-01-14 05:32:00,38.0,34.0,30.02,West,269,7.0,16.0,87,0.01,,,0.22,,2013-01-14 10:32:00,
2013-01-14 05:42:00,38.0,34.0,30.02,West,269,7.0,16.0,87,0.01,,,0.22,,2013-01-14 10:42:00,
2013-01-14 05:53:00,38.0,34.0,30.04,West,261,4.0,16.0,87,0.01,,,0.22,,2013-01-14 10:53:00,
2013-01-14 06:02:00,37.0,33.0,30.04,West,275,2.0,15.0,85,0.01,,,0.22,,2013-01-14 11:02:00,
2013-01-14 06:12:00,37.0,33.0,30.04,West,275,2.0,15.0,85,0.01,,,0.22,,2013-01-14 11:12:00,
2013-01-14 06:22:00,37.0,33.0,30.06,West,267,5.0,18.0,84,0.00,,,0.22,,2013-01-14 11:22:00,
2013-01-14 06:33:00,36.0,31.0,30.07,West,275,9.0,17.0,82,0.00,,,0.22,,2013-01-14 11:33:00,
2013-01-14 06:43:00,36.0,31.0,30.07,West,275,9.0,17.0,82,0.00,,,0.22,,2013-01-14 11:43:00,
2013-01-14 06:53:00,35.0,30.0,30.09,WNW,291,11.0,18.0,82,0.00,,,0.22,,2013-01-14 11:53:00,
2013-01-14 07:03:00,35.0,30.0,30.10,West,271,7.0,16.0,81,0.00,,,0.20,,2013-01-14 12:03:00,
2013-01-14 07:12:00,35.0,30.0,30.10,West,271,7.0,16.0,81,0.00,,,0.20,,2013-01-14 12:12:00,
2013-01-14 07:23:00,35.0,30.0,30.12,West,279,10.0,14.0,81,0.00,,,0.20,,2013-01-14 12:23:00,
2013-01-14 07:33:00,35.0,29.0,30.13,West,267,11.0,18.0,80,0.00,,,0.20,,2013-01-14 12:33:00,
2013-01-14 07:43:00,35.0,29.0,30.13,West,267,11.0,18.0,80,0.00,,,0.20,,2013-01-14 12:43:00,
2013-01-14 07:53:00,34.0,28.0,30.15,WNW,282,10.0,17.0,79,0.00,,,0.20,,2013-01-14 12:53:00,
2013-01-14 08:03:00,34.0,28.0,30.15,West,274,13.0,17.0,80,0.00,,,0.14,,2013-01-14 13:03:00,
2013-01-14 08:13:00,34.0,28.0,30.15,West,274,13.0,17.0,80,0.00,,,0.14,,2013-01-14 13:13:00,
2013-01-14 08:23:00,33.0,27.0,30.18,West,273,13.0,18.0,79,0.00,,,0.14,,2013-01-14 13:23:00,
2013-01-14 08:33:00,33.0,27.0,30.19,West,273,8.0,16.0,79,0.00,,,0.14,,2013-01-14 13:33:00,
2013-01-14 08:43:00,33.0,27.0,30.19,West,273,8.0,16.0,79,0.00,,,0.14,,2013-01-14 13:43:00,
2013-01-14 08:53:00,32.0,26.0,30.20,West,274,9.0,17.0,79,0.00,,,0.14,,2013-01-14 13:53:00,
2013-01-14 09:03:00,32.0,26.0,30.21,WSW,252,6.0,15.0,79,0.00,,,0.12,,2013-01-14 14:03:00,
2013-01-14 09:13:00,32.0,26.0,30.21,WSW,252,6.0,15.0,79,0.00,,,0.12,,2013-01-14 14:13:00,
2013-01-14 09:23:00,32.0,26.0,30.22,West,280,8.0,15.0,79,0.00,,,0.12,,2013-01-14 14:23:00,
2013-01-14 09:33:00,32.0,26.0,30.23,WSW,244,10.0,13.0,79,0.00,,,0.12,,2013-01-14 14:33:00,
2013-01-14 09:43:00,32.0,26.0,30.23,WSW,244,10.0,13.0,79,0.00,,,0.12,,2013-01-14 14:43:00,
2013-01-14 09:53:00,32.0,26.0,30.24,West,270,7.0,13.0,78,0.00,,,0.12,,2013-01-14 14:53:00,
2013-01-14 10:03:00,32.0,26.0,30.25,West,277,8.0,13.0,78,0.00,,,0.12,,2013-01-14 15:03:00,
2013-01-14 10:12:00,32.0,26.0,30.25,West,277,8.0,13.0,78,0.00,,,0.12,,2013-01-14 15:12:00,
2013-01-14 10:23:00,32.0,26.0,30.26,WSW,248,1.0,13.0,78,0.00,,,0.12,,2013-01-14 15:23:00,
2013-01-14 10:33:00,32.0,26.0,30.26,West,261,4.0,12.0,77,0.00,,,0.12,,2013-01-14 15:33:00,
2013-01-14 10:43:00,32.0,26.0,30.26,West,261,4.0,12.0,77,0.00,,,0.12,,2013-01-14 15:43:00,
2013-01-14 10:53:00,32.0,25.0,30.27,West,261,7.0,15.0,76,0.00,,,0.12,,2013-01-14 15:53:00,
2013-01-14 11:03:00,32.0,25.0,30.27,WNW,284,8.0,16.0,76,0.00,,,0.11,,2013-01-14 16:03:00,
2013-01-14 11:12:00,32.0,25.0,30.27,WNW,284,8.0,16.0,76,0.00,,,0.11,,2013-01-14 16:12:00,
2013-01-14 11:23:00,32.0,26.0,30.28,WSW,245,9.0,14.0,77,0.00,,,0.11,,2013-01-14 16:23:00,
2013-01-14 11:33:00,32.0,26.0,30.28,West,279,13.0,16.0,77,0.00,,,0.11,,2013-01-14 16:33:00,
2013-01-14 11:43:00,32.0,26.0,30.28,West,279,13.0,16.0,77,0.00,,,0.11,,2013-01-14 16:43:00,
2013-01-14 11:53:00,32.0,25.0,30.28,West,279,8.0,16.0,75,0.00,,,0.11,,2013-01-14 16:53:00,
2013-01-14 12:03:00,32.0,25.0,30.28,West,278,7.0,14.0,75,0.00,,,0.11,,2013-01-14 17:03:00,
2013-01-14 12:12:00,32.0,25.0,30.28,West,278,7.0,14.0,75,0.00,,,0.11,,2013-01-14 17:12:00,
2013-01-14 12:23:00,32.0,25.0,30.28,WNW,289,8.0,13.0,76,0.00,,,0.11,,2013-01-14 17:23:00,
2013-01-14 12:33:00,31.0,25.0,30.28,West,263,9.0,14.0,77,0.00,,,0.11,,2013-01-14 17:33:00,
2013-01-14 12:43:00,31.0,25.0,30.28,West,263,9.0,14.0,77,0.00,,,0.11,,2013-01-14 17:43:00,
2013-01-14 12:54:00,31.0,25.0,30.28,West,279,8.0,14.0,78,0.00,,,0.11,,2013-01-14 17:54:00,
2013-01-14 13:03:00,31.0,25.0,30.28,West,271,8.0,15.0,78,0.00,,,0.11,,2013-01-14 18:03:00,
2013-01-14 13:13:00,31.0,25.0,30.28,West,271,8.0,15.0,78,0.00,,,0.11,,2013-01-14 18:13:00,
2013-01-14 13:23:00,31.0,25.0,30.27,West,281,7.0,12.0,79,0.00,,,0.11,,2013-01-14 18:23:00,
2013-01-14 13:33:00,31.0,26.0,30.28,NW,306,6.0,12.0,80,0.00,,,0.11,,2013-01-14 18:33:00,
2013-01-14 13:43:00,31.0,26.0,30.28,NW,306,6.0,12.0,80,0.00,,,0.11,,2013-01-14 18:43:00,
2013-01-14 13:53:00,31.0,26.0,30.29,West,266,8.0,12.0,80,0.00,,,0.11,,2013-01-14 18:53:00,
2013-01-14 14:03:00,30.0,25.0,30.29,West,263,6.0,14.0,80,0.00,,,0.11,,2013-01-14 19:03:00,
2013-01-14 14:13:00,30.0,25.0,30.29,West,263,6.0,14.0,80,0.00,,,0.11,,2013-01-14 19:13:00,
2013-01-14 14:22:00,31.0,25.0,30.28,West,270,3.0,13.0,77,0.00,,,0.11,,2013-01-14 19:22:00,
2013-01-14 14:33:00,31.0,23.0,30.27,WNW,284,5.0,12.0,73,0.00,,,0.11,,2013-01-14 19:33:00,
2013-01-14 14:43:00,31.0,23.0,30.27,WNW,284,5.0,12.0,73,0.00,,,0.11,,2013-01-14 19:43:00,
2013-01-14 14:53:00,31.0,23.0,30.28,WSW,257,2.0,11.0,71,0.00,,,0.11,,2013-01-14 19:53:00,
2013-01-14 15:03:00,31.0,22.0,30.29,WNW,294,2.0,11.0,69,0.00,,,0.11,,2013-01-14 20:03:00,
2013-01-14 15:13:00,31.0,22.0,30.29,WNW,294,2.0,11.0,69,0.00,,,0.11,,2013-01-14 20:13:00,
2013-01-14 15:23:00,31.0,24.0,30.29,WNW,300,3.0,10.0,75,0.00,,,0.11,,2013-01-14 20:23:00,
2013-01-14 15:33:00,30.0,24.0,30.30,West,279,7.0,12.0,77,0.00,,,0.11,,2013-01-14 20:33:00,
2013-01-14 15:43:00,30.0,24.0,30.30,West,279,7.0,12.0,77,0.00,,,0.11,,2013-01-14 20:43:00,
2013-01-14 15:53:00,30.0,24.0,30.29,WNW,287,6.0,12.0,78,0.00,,,0.11,,2013-01-14 20:53:00,
2013-01-14 16:03:00,30.0,23.0,30.31,WNW,286,9.0,13.0,76,0.00,,,0.11,,2013-01-14 21:03:00,
2013-01-14 16:13:00,30.0,23.0,30.31,WNW,286,9.0,13.0,76,0.00,,,0.11,,2013-01-14 21:13:00,
2013-01-14 16:23:00,30.0,24.0,30.32,West,273,4.0,13.0,77,0.00,,,0.11,,2013-01-14 21:23:00,
2013-01-14 16:33:00,30.0,23.0,30.33,West,261,4.0,11.0,76,0.00,,,0.11,,2013-01-14 21:33:00,
2013-01-14 16:43:00,30.0,23.0,30.33,West,261,4.0,11.0,76,0.00,,,0.11,,2013-01-14 21:43:00,
2013-01-14 16:53:00,30.0,24.0,30.32,SW,235,1.0,9.0,77,0.00,,,0.11,,2013-01-14 21:53:00,
2013-01-14 17:03:00,29.0,23.0,30.33,WSW,258,2.0,7.0,77,0.00,,,0.11,,2013-01-14 22:03:00,
2013-01-14 17:12:00,29.0,23.0,30.33,WSW,258,2.0,7.0,77,0.00,,,0.11,,2013-01-14 22:12:00,
2013-01-14 17:23:00,29.0,23.0,30.33,WSW,248,1.0,10.0,77,0.00,,,0.11,,2013-01-14 22:23:00,
2013-01-14 17:33:00,29.0,23.0,30.34,West,259,1.0,9.0,77,0.00,,,0.11,,2013-01-14 22:33:00,
2013-01-14 17:43:00,29.0,23.0,30.34,West,259,1.0,9.0,77,0.00,,,0.11,,2013-01-14 22:43:00,
2013-01-14 17:53:00,29.0,22.0,30.35,West,261,3.0,12.0,76,0.00,,,0.11,,2013-01-14 22:53:00,
2013-01-14 18:03:00,29.0,22.0,30.35,SW,219,2.0,10.0,76,0.00,,,0.11,,2013-01-14 23:03:00,
2013-01-14 18:12:00,29.0,22.0,30.35,SW,219,2.0,10.0,76,0.00,,,0.11,,2013-01-14 23:12:00,
2013-01-14 18:23:00,29.0,22.0,30.34,SW,229,1.0,7.0,75,0.00,,,0.11,,2013-01-14 23:23:00,
2013-01-14 18:33:00,29.0,22.0,30.35,West,278,1.0,9.0,75,0.00,,,0.11,,2013-01-14 23:33:00,
2013-01-14 18:43:00,29.0,22.0,30.35,West,278,1.0,9.0,75,0.00,,,0.11,,2013-01-14 23:43:00,
2013-01-14 18:53:00,29.0,22.0,30.37,West,260,1.0,5.0,75,0.00,,,0.11,,2013-01-14 23:53:00,
2013-01-14 19:03:00,29.0,22.0,30.36,West,261,2.0,9.0,74,0.00,,,0.11,,2013-01-15 00:03:00,
2013-01-14 19:12:00,29.0,22.0,30.36,West,261,2.0,9.0,74,0.00,,,0.11,,2013-01-15 00:12:00,
2013-01-14 19:23:00,29.0,22.0,30.36,West,273,2.0,7.0,74,0.00,,,0.11,,2013-01-15 00:23:00,
2013-01-14 19:33:00,29.0,22.0,30.35,West,260,1.0,7.0,75,0.00,,,0.11,,2013-01-15 00:33:00,
2013-01-14 19:43:00,29.0,22.0,30.35,West,260,1.0,7.0,75,0.00,,,0.11,,2013-01-15 00:43:00,
2013-01-14 19:53:00,29.0,22.0,30.35,WSW,247,1.0,7.0,75,0.00,,,0.11,,2013-01-15 00:53:00,
2013-01-14 20:02:00,29.0,22.0,30.33,WNW,290,0.0,3.0,75,0.00,,,0.11,,2013-01-15 01:02:00,
2013-01-14 20:12:00,29.0,22.0,30.33,West,281,3.0,7.0,75,0.00,,,0.11,,2013-01-15 01:12:00,
2013-01-14 20:22:00,29.0,22.0,30.33,West,281,3.0,7.0,75,0.00,,,0.11,,2013-01-15 01:22:00,
2013-01-14 20:32:00,29.0,22.0,30.35,West,275,2.0,7.0,75,0.00,,,0.11,,2013-01-15 01:32:00,
2013-01-14 20:43:00,29.0,22.0,30.35,West,275,2.0,7.0,75,0.00,,,0.11,,2013-01-15 01:43:00,
2013-01-14 20:52:00,29.0,22.0,30.35,SW,218,3.0,4.0,75,0.00,,,0.11,,2013-01-15 01:52:00,
2013-01-14 21:02:00,29.0,22.0,30.35,WSW,250,2.0,7.0,75,0.00,,,0.11,,2013-01-15 02:02:00,
2013-01-14 21:12:00,29.0,22.0,30.35,WSW,250,2.0,7.0,75,0.00,,,0.11,,2013-01-15 02:12:00,
2013-01-14 21:23:00,29.0,22.0,30.35,WSW,258,0.0,4.0,76,0.00,,,0.11,,2013-01-15 02:23:00,
2013-01-14 21:32:00,29.0,22.0,30.35,West,273,1.0,4.0,76,0.00,,,0.11,,2013-01-15 02:32:00,
2013-01-14 21:42:00,29.0,22.0,30.35,West,273,1.0,4.0,76,0.00,,,0.11,,2013-01-15 02:42:00,
2013-01-14 21:53:00,28.0,21.0,30.35,West,265,0.0,4.0,75,0.00,,,0.11,,2013-01-15 02:53:00,
2013-01-14 22:03:00,28.0,21.0,30.35,WSW,250,0.0,4.0,76,0.00,,,0.09,,2013-01-15 03:03:00,
2013-01-14 22:12:00,28.0,21.0,30.35,WSW,250,0.0,4.0,76,0.00,,,0.09,,2013-01-15 03:12:00,
2013-01-14 22:22:00,28.0,21.0,30.34,WSW,241,1.0,2.0,76,0.00,,,0.09,,2013-01-15 03:22:00,
2013-01-14 22:33:00,28.0,22.0,30.35,SSW,202,2.0,3.0,77,0.00,,,0.09,,2013-01-15 03:33:00,
2013-01-14 22:42:00,28.0,22.0,30.35,SSW,202,2.0,3.0,77,0.00,,,0.09,,2013-01-15 03:42:00,
2013-01-14 22:53:00,28.0,22.0,30.35,WSW,244,2.0,3.0,77,0.00,,,0.09,,2013-01-15 03:53:00,
2013-01-14 23:02:00,28.0,22.0,30.34,WSW,241,1.0,3.0,77,0.00,,,0.05,,2013-01-15 04:02:00,
2013-01-14 23:12:00,28.0,22.0,30.34,WSW,241,1.0,3.0,77,0.00,,,0.05,,2013-01-15 04:12:00,
2013-01-14 23:22:00,27.0,21.0,30.33,SW,234,0.0,3.0,78,0.00,,,0.05,,2013-01-15 04:22:00,
2013-01-14 23:32:00,27.0,21.0,30.33,SW,234,0.0,0.0,79,0.00,,,0.05,,2013-01-15 04:32:00,
2013-01-14 23:42:00,27.0,21.0,30.33,SW,234,0.0,0.0,79,0.00,,,0.05,,2013-01-15 04:42:00,
2013-01-14 23:52:00,27.0,22.0,30.33,SW,234,0.0,0.0,80,0.00,,,0.05,,2013-01-15 04:52:00,